Вернуться в каталог

STARLINK-32846

АктивенСвязьVLEO
NORAD 62867·PAYLOAD·🇺🇸 United States

Запущен Feb 1, 2025 с Vandenberg Space Force Base

Loading…

Ближайшие Пролёты (ближайшие 24 часа)

TLE

СвежийSource: CelesTrak SupGP

Эпоха: Sep 15, 2026, 03:10 UTC

1 62867C 25022P   26258.13243056  .00053860  00000+0  15913-2 0  2587
2 62867  53.1596 326.7082 0001150  91.4854   3.9219 15.34364129    19

Отслеживайте STARLINK-32846 в реальном времени с AllMySat

Download on the App Store